Redding, CA

3:53 PM PDT on June 22, 2017 (GMT -0700)
Redding Municipal

Weather History for KRDD - March, 2013

Change the Weather History Date:

Tuesday, March 5, 2013

  Actual Average Record
Temperature  
Mean Temperature 52 °F -  
Max Temperature 61 °F 63 °F 78 °F (1993)
Min Temperature 43 °F 42 °F 28 °F (1997)
Degree Days  
Heating Degree Days 13    
Cooling Degree Days 0    
Growing Degree Days 2 (Base 50)    
Moisture  
Dew Point 39 °F    
Average Humidity 57    
Maximum Humidity 80    
Minimum Humidity 33    
Precipitation  
Precipitation 0.00 in 0.17 in 2.39 in (2006)
Month to date precipitation 0.00 0.94  
Year to date precipitation 1.51 12.41  
Since 1 July precipitation 20.67  
Sea Level Pressure  
Sea Level Pressure 29.85 in    
Wind  
Wind Speed 11 mph (SSW)    
Max Wind Speed 30 mph    
Max Gust Speed 36 mph    
Visibility 10 miles    
Events Rain    
T = Trace of Precipitation, MM = Missing Value Source: NWS Daily Summary

Daily Weather History Graph

Daily Weather History Graph

Search for Another Location

Airport or City:

Trip Planner

Search our weather history database for the weather conditions in past years. The results will help you decide how hot, cold, wet, or windy it might be!

Date:

Astronomy

Mar. 05, 2013 Rise Set
Actual Time 6:36 AM PST 6:05 PM PST
Civil Twilight 6:08 AM PST 6:32 PM PST
Nautical Twilight 5:37 AM PST 7:04 PM PST
Astronomical Twilight 5:05 AM PST 7:36 PM PST
Moon 1:54 AM PST (3/5) 11:49 AM PST (3/5)
Length of Visible Light 12h 23m
Length of Day
11h 29m
Last Quarter, 39% of the Moon is Illuminated
Mar 5
Last Quarter
Mar 11
New
Mar 19
First Quarter
Mar 27
Full
Apr 2
Last Quarter

Hourly Weather History & Observations

Time (PST) Temp. Windchill Dew Point Humidity Pressure Visibility Wind Dir Wind Speed Gust Speed Precip Events Conditions
12:53 AM 55.4 °F - 46.4 °F 72% 29.96 in 10.0 mi WSW 9.2 mph - N/A   Mostly Cloudy
1:53 AM 53.1 °F - 46.0 °F 77% 29.96 in 10.0 mi SSW 10.4 mph - N/A   Mostly Cloudy
2:53 AM 51.1 °F - 45.0 °F 80% 29.94 in 10.0 mi SW 6.9 mph - N/A   Clear
3:42 AM 51.8 °F - 44.6 °F 76% 29.94 in 10.0 mi SSW 6.9 mph - N/A   Overcast
3:53 AM 51.8 °F - 44.6 °F 76% 29.94 in 10.0 mi South 8.1 mph - N/A   Mostly Cloudy
4:05 AM 51.8 °F - 42.8 °F 71% 29.94 in 10.0 mi South 8.1 mph - N/A   Mostly Cloudy
4:53 AM 48.2 °F - 42.8 °F 82% 29.93 in 10.0 mi SSE 3.5 mph - N/A   Mostly Cloudy
5:53 AM 46.9 °F - 39.9 °F 77% 29.94 in 10.0 mi SW 3.5 mph - N/A   Clear
6:53 AM 44.1 °F - 37.9 °F 79% 29.94 in 10.0 mi Calm Calm - N/A   Clear
7:53 AM 46.0 °F 43.9 °F 37.9 °F 73% 29.95 in 10.0 mi West 4.6 mph - N/A   Clear
8:53 AM 48.0 °F - 36.0 °F 63% 29.95 in 10.0 mi SSW 5.8 mph - N/A   Clear
9:53 AM 53.1 °F - 32.0 °F 45% 29.94 in 10.0 mi SSW 8.1 mph 17.3 mph N/A   Clear
10:53 AM 54.0 °F - 32.0 °F 43% 29.92 in 10.0 mi SW 10.4 mph - N/A   Clear
11:53 AM 57.0 °F - 33.1 °F 40% 29.90 in 10.0 mi SSW 10.4 mph - N/A   Clear
12:53 PM 59.0 °F - 30.0 °F 33% 29.86 in 10.0 mi SSW 11.5 mph 23.0 mph N/A   Clear
1:53 PM 60.1 °F - 32.0 °F 35% 29.83 in 10.0 mi South 16.1 mph 28.8 mph N/A   Clear
2:53 PM 60.1 °F - 33.1 °F 36% 29.80 in 10.0 mi South 18.4 mph 25.3 mph N/A   Mostly Cloudy
3:53 PM 59.0 °F - 34.0 °F 39% 29.77 in 10.0 mi SSE 24.2 mph 35.7 mph N/A   Clear
4:53 PM 57.9 °F - 34.0 °F 41% 29.75 in 10.0 mi South 25.3 mph 34.5 mph N/A   Overcast
5:53 PM 55.0 °F - 37.0 °F 51% 29.77 in 10.0 mi South 19.6 mph 31.1 mph 0.00 in Rain Light Rain
6:53 PM 50.0 °F - 42.1 °F 74% 29.78 in 8.0 mi South 15.0 mph - 0.05 in Rain Light Rain
7:53 PM 48.9 °F - 43.0 °F 80% 29.77 in 7.0 mi SSW 10.4 mph - 0.09 in Rain Rain
8:53 PM 48.9 °F - 42.1 °F 77% 29.76 in 9.0 mi South 12.7 mph - 0.12 in Rain Light Rain
9:53 PM 48.0 °F - 41.0 °F 77% 29.74 in 5.0 mi South 26.5 mph 35.7 mph 0.16 in Rain Rain
10:53 PM 46.9 °F - 41.0 °F 80% 29.71 in 10.0 mi SSE 23.0 mph 34.5 mph 0.09 in Rain Light Rain
11:18 PM 46.4 °F 39.5 °F 41.0 °F 81% 29.70 in 10.0 mi South 17.3 mph 25.3 mph 0.01 in Rain Light Rain
11:53 PM 46.9 °F - 39.9 °F 77% 29.69 in 10.0 mi SSE 21.9 mph 26.5 mph 0.01 in Rain Light Rain